Dunkirk, NY

6:21 AM EDT on April 19, 2018 (GMT -0400)
Chautauqua County-Dunkirk

Weather History for KDKK - September, 2013

Change the Weather History Date:

Saturday, September 28, 2013

  Actual Average Record
Temperature  
Mean Temperature 58 °F -  
Max Temperature 71 °F 67 °F 90 °F (1959)
Min Temperature 46 °F 49 °F 37 °F (1957)
Degree Days  
Heating Degree Days 6    
Growing Degree Days 8 (Base 50)    
Moisture  
Dew Point 51 °F    
Average Humidity 73    
Maximum Humidity 93    
Minimum Humidity 57    
Precipitation  
Precipitation 0.00 in - - ()
Sea Level Pressure  
Sea Level Pressure 30.22 in    
Wind  
Wind Speed 6 mph (SW)    
Max Wind Speed 13 mph    
Max Gust Speed 23 mph    
Visibility 10 miles    
Events      
Averages and records for this station are not official NWS values.
T = Trace of Precipitation, MM = Missing Value Source: NWS Daily Summary

Daily Weather History Graph

Daily Weather History Graph

Search for Another Location

Airport or City:

Astronomy

Sep. 28, 2013 Rise Set
Actual Time 7:11 AM EDT 7:03 PM EDT
Civil Twilight 6:43 AM EDT 7:31 PM EDT
Nautical Twilight 6:10 AM EDT 8:03 PM EDT
Astronomical Twilight 5:37 AM EDT 8:37 PM EDT
Moon 12:50 AM EDT (9/28) 3:27 PM EDT (9/28)
Length of Visible Light 12h 48m
Length of Day
11h 52m
Last Quarter, 36% of the Moon is Illuminated
Sep 28
Last Quarter
Oct 4
New
Oct 11
First Quarter
Oct 18
Full
Oct 26
Last Quarter

Hourly Weather History & Observations

Time (EDT) Temp. Dew Point Humidity Pressure Visibility Wind Dir Wind Speed Gust Speed Precip Events Conditions
12:53 AM 50.0 °F 48.0 °F 93% 30.24 in 9.0 mi West 5.8 mph - N/A   Clear
1:53 AM 48.9 °F 46.9 °F 93% 30.24 in 9.0 mi Variable 5.8 mph - N/A   Clear
2:53 AM 48.9 °F 46.9 °F 93% 30.24 in 10.0 mi SW 3.5 mph - N/A   Clear
3:53 AM 48.0 °F 45.0 °F 89% 30.23 in 10.0 mi SSW 6.9 mph - N/A   Clear
4:53 AM 48.0 °F 46.0 °F 93% 30.23 in 10.0 mi West 5.8 mph - N/A   Clear
5:53 AM 46.9 °F 45.0 °F 93% 30.25 in 10.0 mi WNW 6.9 mph - N/A   Clear
6:53 AM 46.9 °F 45.0 °F 93% 30.26 in 10.0 mi Variable 4.6 mph - N/A   Clear
7:53 AM 51.1 °F 48.9 °F 92% 30.28 in 10.0 mi South 8.1 mph - N/A   Clear
8:53 AM 57.0 °F 52.0 °F 83% 30.28 in 10.0 mi Calm Calm - N/A   Clear
9:53 AM 62.1 °F 53.1 °F 72% 30.28 in 10.0 mi Variable 3.5 mph - N/A   Clear
10:53 AM 66.9 °F 54.0 °F 63% 30.28 in 10.0 mi SW 8.1 mph - N/A   Clear
11:53 AM 69.1 °F 55.0 °F 61% 30.27 in 10.0 mi North 8.1 mph - N/A   Clear
12:53 PM 70.0 °F 55.0 °F 59% 30.26 in 10.0 mi Variable 5.8 mph - N/A   Clear
1:53 PM 71.1 °F 55.9 °F 59% 30.23 in 10.0 mi NNW 8.1 mph - N/A   Clear
2:53 PM 70.0 °F 55.0 °F 59% 30.21 in 10.0 mi NNW 8.1 mph - N/A   Clear
3:53 PM 70.0 °F 55.9 °F 61% 30.19 in 10.0 mi North 8.1 mph - N/A   Clear
4:53 PM 70.0 °F 54.0 °F 57% 30.17 in 10.0 mi North 9.2 mph - N/A   Clear
5:53 PM 69.1 °F 54.0 °F 58% 30.17 in 10.0 mi Variable 4.6 mph - N/A   Clear
6:53 PM 64.9 °F 55.0 °F 70% 30.18 in 10.0 mi SSW 6.9 mph - N/A   Clear
7:53 PM 61.0 °F 51.1 °F 70% 30.19 in 10.0 mi SSE 4.6 mph - N/A   Clear
8:53 PM 62.1 °F 48.9 °F 62% 30.18 in 10.0 mi SSE 9.2 mph 18.4 mph N/A   Clear
9:53 PM 60.1 °F 48.0 °F 64% 30.17 in 10.0 mi SSE 5.8 mph - N/A   Clear
10:53 PM 61.0 °F 46.9 °F 60% 30.16 in 10.0 mi South 9.2 mph 21.9 mph N/A   Clear
11:53 PM 60.1 °F 46.9 °F 62% 30.15 in 10.0 mi South 12.7 mph 23.0 mph N/A   Clear